Regional Weather Roundup
Issued by NWS New Orleans/Baton Rouge, LA

Home | Current Version | Previous Version | Text Only | Print | Product List | Glossary Off
Versions: 1 2 3 4 5 6 7 8 9 10 11 12 13 14 15 16 17 18 19 20 21 22 23 24 25 26 27 28 29 30 31 32 33 34 35 36 37 38 39 40 41 42 43 44 45 46 47 48 49 50

296
ASUS44 KLIX 292110
RWRLIX
NEW ORLEANS REGIONAL WEATHER ROUNDUP
NATIONAL WEATHER SERVICE NEW ORLEANS LA
400 PM CDT TUE JUL 29 2014

NOTE: "FAIR" INDICATES FEW OR NO CLOUDS BELOW 12,000 FEET WITH NO
      SIGNIFICANT WEATHER AND/OR OBSTRUCTIONS TO VISIBILITY.
      SKY/WX - SKY CONDITION AND SIGNIFICANT WEATHER.
      TMP - AIR TEMPERATURE.     DP    - DEWPOINT TEMPERATURE.
      RH  - RELATIVE HUMIDITY.   PRES  - PRESSURE.
      HI  - HEAT INDEX.          WCI   - WIND CHILL INDEX.

*  THESE STATIONS ARE NOT NWS OR FAA STATIONS AND ARE NOT UNDER
   NWS QUALITY CONTROL.

LAZ038-040-048-061>063-065>067-069-292200-
SOUTHEAST LOUISIANA

CITY           SKY/WX    TMP DP  RH WIND       PRES   REMARKS
N.O. AUDUBON     N/A     90  66  45 MISG        N/A
N.O. INTL ARPT PTSUNNY   88  66  48 VRB6      30.03F
N.O. LAKEFRONT MOSUNNY   85  67  54 NW5       30.03F
N.O. DOWNTOWN*   N/A     88  63  42 N9        30.03S
SLIDELL        MOSUNNY   89  62  40 NW8       30.01F
BATON ROUGE    MOSUNNY   90  63  40 VRB3      30.04F
BOOTHVILLE     MOSUNNY   85  68  56 VRB6      30.02F
BELLE CHASSE   PTSUNNY   89  62  40 VRB6      30.02S
BOGALUSA*        N/A     87  63  44 N6        30.04S
GALLIANO*      NOT AVBL
NEW ROADS*       N/A     86  64  47 N6        30.05S
GONZALES*        N/A     87  67  50 N5        30.03S
HAMMOND*       MOSUNNY   91  57  31 N8        30.05S
HOUMA*         MOSUNNY   90  66  45 NW5       30.03F
PORT FOURCHON* CLOUDY    88  68  51 CALM      30.04S

$$

MSZ070-080>082-292200-
SOUTHERN MISSISSIPPI

CITY           SKY/WX    TMP DP  RH WIND       PRES   REMARKS
MCCOMB         MOSUNNY   86  62  44 NW7       30.04F
GULFPORT       MOSUNNY   90  62  39 N10       29.99F
BILOXI         MOSUNNY   88  68  51 VRB3      30.00F
PASCAGOULA     PTSUNNY   89  65  44 VRB6      29.99F
STENNIS ARPT*  MOSUNNY  N/A N/A N/A N6        30.01F

$$

COASTAL OBSERVATIONS
LAKE AND NEARSHORE STATIONS

STATION/POSITION TIME  TEMP    WIND        PRES    WAVE
                       AIR SEA DIR/SP/G            HT/PER
                 (UTC) (F)     (DEG/KT/KT) (MB)    (FT/S)
PASCAGOULA       2100   88      30/  7/  9 1015.3
WAVELAND YACHT   2100   86      10/  8/ 11 1015.6
GRAND ISLE       2100   88 86   20/  5/  6 1017.2
SOUTHWEST PASS   2100   91 85   10/ 10/ 12 1016.7
NEW CANAL        2100   84 85  330/  3/  5 1017.2
SHELL BEACH      2100   83 83  310/  4/  5 1016.4

OFFSHORE STATIONS

STATION/POSITION TIME  TEMP    WIND        PRES    WAVE
                       AIR SEA DIR/SP/G            HT/PER
                 (UTC) (F)     (DEG/KT/KT) (MB)    (FT/S)
64 S DAUPHIN ISL 2048   82 87  350/ 12/ 16 1015.9

$$




USA.gov is the U.S. government's official web portal to all federal, state and local government web resources and services.